Retour au catalogue

USA 561

ActifMilitaireVLEO
NORAD 65707·PAYLOAD·🇺🇸 United States

Lancé Sep 22, 2025 depuis Vandenberg Space Force Base

Loading…

Prochains Passages (prochaines 24 heures)

TLE

PériméSource: Mike McCants

Époque: Aug 11, 2026, 21:10 UTC

1 65707U 25213D   26223.88257146 0.00000000  00000-0  00000-0 0    07
2 65707  70.0170 247.1162 0003000 224.4453 135.5547 14.96713300    06

Suivez USA 561 en temps réel avec AllMySat

Download on the App Store